Find Starlink 34533

NORAD ID: 64715 Int'l Des: 2025-142 Owner: SPXS Country: US Constellation: starlink operational
LEOCIRCULAR

Current View

Loading 3D Globe...

About Starlink 34533

Starlink 34533 (NORAD 64715) is a starlink constellation satellite (v2 mini) launched Jun 28, 2025 by SPXS of US. It operates in LEO, CIRCULAR orbit with a mass of 575.00 kg.

Upcoming Passes

Passes for default location (London). Set your location on the main map for personalized predictions.

Altitude History

Loading altitude history...

Two-Line Element Set

1 64715U 25142V 26238.40969910 -.00001183 00000-0 -91356-4 0 9999
2 64715 69.9996 246.5127 0003881 265.5305 94.5411 14.98312210 64887
Epoch: Aug 26, 2026 • Age: 7 hours

Current Status

Altitude 581.6 km
Apogee / Perigee N/A
Velocity 7.57 km/s
Sub-Earth Point -31.30°S, 154.38°W
Launch Date Jun 28, 2025
Age 1.1 years
Type internet

Technical Details

Classification Payload
Mass 575.00 kg
Dry Mass 530.00 kg
Total Mass 575.00 kg
Length 0.30 m
Diameter 4.10 m
Span 29.00 m
Shape Box + pan
Manufacturer SPXS
Bus Type Starlink V2MO
Phase Status In Orbit
Owner/State SPXS/US

Most Searched